TimeEDT,TemperatureF,Dew PointF,Humidity,Sea Level PressureIn,VisibilityMPH,Wind Direction,Wind SpeedMPH,Gust SpeedMPH,PrecipitationIn,Events,Conditions,WindDirDegrees,DateUTC
12:53 AM,55.0,52.0,89,29.75,10.0,East,3.5,-,N/A,,Overcast,100,2012-10-02 04:53:00
1:53 AM,55.0,53.1,93,29.74,8.0,East,3.5,-,N/A,,Overcast,100,2012-10-02 05:53:00
3:43 AM,57.2,55.4,94,29.73,8.0,East,4.6,-,0.00,Rain,Light Rain,90,2012-10-02 07:43:00
3:53 AM,57.0,55.0,93,29.72,9.0,ESE,3.5,-,0.00,,Overcast,110,2012-10-02 07:53:00
4:28 AM,57.2,55.4,94,29.73,8.0,Calm,Calm,-,N/A,,Overcast,0,2012-10-02 08:28:00
4:48 AM,57.2,55.4,94,29.73,7.0,Calm,Calm,-,N/A,,Overcast,0,2012-10-02 08:48:00
4:53 AM,57.0,55.0,93,29.73,8.0,Calm,Calm,-,N/A,,Overcast,0,2012-10-02 08:53:00
5:53 AM,57.0,55.0,93,29.74,5.0,Calm,Calm,-,N/A,,Overcast,0,2012-10-02 09:53:00
6:53 AM,57.9,55.9,93,29.75,5.0,NE,3.5,-,0.02,,Overcast,40,2012-10-02 10:53:00
7:50 AM,57.2,55.4,94,29.78,4.0,Calm,Calm,-,N/A,,Overcast,0,2012-10-02 11:50:00
7:53 AM,57.9,55.9,93,29.78,4.0,Calm,Calm,-,N/A,,Overcast,0,2012-10-02 11:53:00
8:26 AM,59.0,57.2,94,29.79,2.5,Calm,Calm,-,0.00,Rain,Light Rain,0,2012-10-02 12:26:00
8:29 AM,59.0,57.2,94,29.79,1.8,East,3.5,-,0.01,Rain,Light Rain,90,2012-10-02 12:29:00
8:53 AM,59.0,57.9,96,29.79,1.5,Calm,Calm,-,0.04,Rain,Light Rain,0,2012-10-02 12:53:00
8:58 AM,60.8,57.2,88,29.79,2.5,Calm,Calm,-,0.00,Rain,Light Rain,0,2012-10-02 12:58:00
9:22 AM,60.8,59.0,94,29.79,4.0,East,3.5,-,0.00,,Overcast,90,2012-10-02 13:22:00
9:34 AM,60.8,59.0,94,29.80,5.0,ESE,4.6,-,0.00,,Overcast,110,2012-10-02 13:34:00
9:53 AM,62.1,60.1,93,29.79,5.0,Calm,Calm,-,0.00,,Overcast,0,2012-10-02 13:53:00
10:53 AM,66.0,62.1,87,29.80,10.0,SE,6.9,-,N/A,,Overcast,130,2012-10-02 14:53:00
11:53 AM,70.0,63.0,78,29.78,10.0,ESE,4.6,-,N/A,,Overcast,120,2012-10-02 15:53:00
12:10 PM,71.6,64.4,78,29.79,10.0,SE,3.5,-,N/A,,Mostly Cloudy,140,2012-10-02 16:10:00
12:45 PM,71.6,64.4,78,29.79,10.0,SE,5.8,-,N/A,,Overcast,130,2012-10-02 16:45:00
12:53 PM,72.0,64.0,76,29.78,10.0,Calm,Calm,-,N/A,,Overcast,0,2012-10-02 16:53:00
1:48 PM,75.2,66.2,73,29.77,10.0,SSE,8.1,-,N/A,,Overcast,150,2012-10-02 17:48:00
1:53 PM,75.0,66.0,73,29.76,10.0,SE,6.9,-,N/A,,Overcast,140,2012-10-02 17:53:00
2:53 PM,77.0,66.0,69,29.74,10.0,East,4.6,-,N/A,,Scattered Clouds,90,2012-10-02 18:53:00
3:26 PM,77.0,66.2,69,29.76,10.0,East,5.8,-,N/A,,Mostly Cloudy,100,2012-10-02 19:26:00
3:53 PM,75.9,66.0,71,29.74,10.0,ESE,6.9,-,N/A,,Mostly Cloudy,120,2012-10-02 19:53:00
4:53 PM,78.1,66.0,66,29.74,10.0,ESE,9.2,-,N/A,,Scattered Clouds,120,2012-10-02 20:53:00
5:53 PM,75.9,66.9,74,29.75,10.0,East,5.8,-,N/A,,Mostly Cloudy,100,2012-10-02 21:53:00
6:51 PM,69.8,66.2,88,29.80,1.5,WSW,13.8,25.3,0.10,Rain,Heavy Rain,240,2012-10-02 22:51:00
6:53 PM,69.1,66.0,90,29.79,0.8,West,8.1,25.3,0.21,Rain,Heavy Rain,270,2012-10-02 22:53:00
7:06 PM,69.8,66.2,88,29.80,1.2,SE,3.5,-,0.21,Rain,Rain,130,2012-10-02 23:06:00
7:10 PM,68.0,66.2,94,29.80,2.5,East,3.5,-,0.22,Rain,Heavy Rain,90,2012-10-02 23:10:00
7:15 PM,68.0,66.2,94,29.80,4.0,Calm,Calm,-,0.22,Rain,Light Rain,0,2012-10-02 23:15:00
7:22 PM,68.0,66.2,94,29.80,10.0,Calm,Calm,-,0.22,,Overcast,0,2012-10-02 23:22:00
7:53 PM,68.0,64.9,90,29.81,10.0,WSW,3.5,-,0.22,,Partly Cloudy,250,2012-10-02 23:53:00
8:27 PM,68.0,66.2,94,29.84,9.0,WNW,5.8,-,N/A,,Overcast,300,2012-10-03 00:27:00
8:37 PM,68.0,64.4,88,29.85,8.0,WNW,5.8,-,N/A,,Overcast,290,2012-10-03 00:37:00
8:48 PM,66.2,64.4,94,29.85,7.0,WNW,5.8,-,N/A,,Overcast,290,2012-10-03 00:48:00
8:53 PM,66.9,64.9,93,29.85,6.0,WNW,5.8,-,N/A,,Overcast,290,2012-10-03 00:53:00
9:37 PM,66.2,62.6,88,29.87,5.0,WNW,4.6,-,N/A,,Scattered Clouds,300,2012-10-03 01:37:00
9:53 PM,64.9,63.0,93,29.87,4.0,Calm,Calm,-,N/A,,Clear,0,2012-10-03 01:53:00
10:12 PM,62.6,60.8,94,29.88,2.0,Calm,Calm,-,N/A,,Clear,0,2012-10-03 02:12:00
10:16 PM,62.6,60.8,94,29.88,1.0,Calm,Calm,-,N/A,,Clear,0,2012-10-03 02:16:00
10:23 PM,62.6,60.8,94,29.88,0.2,Calm,Calm,-,N/A,Fog,Fog,0,2012-10-03 02:23:00
10:53 PM,60.1,59.0,96,29.88,0.2,Calm,Calm,-,N/A,Fog,Fog,0,2012-10-03 02:53:00
11:28 PM,62.6,60.8,94,29.90,0.5,Calm,Calm,-,N/A,Fog,Fog,0,2012-10-03 03:28:00
11:40 PM,62.6,60.8,94,29.91,1.2,WSW,3.5,-,N/A,,Overcast,250,2012-10-03 03:40:00
11:50 PM,62.6,60.8,94,29.90,2.5,Calm,Calm,-,N/A,,Mostly Cloudy,0,2012-10-03 03:50:00
11:51 PM,62.1,61.0,96,29.89,2.5,Calm,Calm,-,N/A,,Mostly Cloudy,0,2012-10-03 03:51:00